Flag for U.S.A. Weather past 2 weeks in Pensacola, Florida, U.S.A.

Now
74 °F

Sunny.


Feels Like: 72 °F
Forecast: 73 / 86 °F
Wind: 6 mph from Northeast

Location: Pensacola Regional Airport

Current Time: Aug 29, 2014 at 7:35:47 AM

Latest Report: Aug 29, 2014 at 6:53 AM


Visibility: 10 mi

Pressure: 29.98 "Hg

Humidity: 91%

Dew point: 71 °F

Location of PensacolaLocation

Historic Weather in Pensacola — Graph

°F

Pensacola temperature yesterday

Maximum temperature yesterday: 90 °F (at 12:53 PM)
Minimum temperature yesterday: 73 °F (at 3:53 AM)
Average temperature yesterday: 80 °F

Past Weeks' High & Low Weather Summary

 TemperatureHumidityPressure
High97 °F (Aug 23, 2:53 PM)97% (Aug 29, 4:53 AM)30.15 "Hg (Aug 29, 4:53 AM)
Low70 °F (Aug 14, 5:53 AM)39% (Aug 23, 2:53 PM)29.81 "Hg (Aug 24, 4:53 PM)
Average82 °F72%30.00 "Hg
* Reported Aug 14 5:53 AM — Aug 29 5:53 AM, Pensacola, Weather by CustomWeather, © 2014

Note: Actual official high and low records may vary slightly from our data, if they occured in-between our weather recording intervals... More about our weather records

Advertising

Pensacola weather history for previous 24 hours

 ConditionsComfort  
Time TempWeatherWind HumidityBarometerVisibility
5:53 AM
Aug 29
74 °FClear.5 mph94%29.97 "Hg10 mi
4:53 AM74 °FClear.7 mph97%29.96 "Hg10 mi
3:53 AM75 °FClear.6 mph94%29.96 "Hg10 mi
2:53 AM76 °FClear.5 mph91%29.98 "Hg10 mi
1:53 AM75 °FClear.No wind88%29.98 "Hg10 mi
12:53 AM75 °FClear.No wind88%29.98 "Hg10 mi
11:53 PM
Aug 28
78 °FClear.5 mph79%29.99 "Hg10 mi
10:53 PM79 °FClear.7 mph74%29.99 "Hg10 mi
9:53 PM79 °FClear.7 mph72%29.98 "Hg10 mi
8:53 PM78 °FClear.7 mph76%29.96 "Hg10 mi
7:53 PM79 °FClear.5 mph74%29.95 "Hg10 mi
6:53 PM81 °FSunny.7 mph67%29.94 "Hg10 mi
5:53 PM83 °FSunny.9 mph59%29.94 "Hg10 mi
4:53 PM86 °FSunny.10 mph53%29.95 "Hg10 mi
3:53 PM88 °FPassing clouds.10 mph39%29.96 "Hg10 mi
2:53 PM88 °FPartly sunny.9 mph42%29.97 "Hg10 mi
1:53 PM86 °FPartly sunny.12 mph48%29.98 "Hg10 mi
12:53 PM90 °FSunny.12 mph45%29.99 "Hg10 mi
11:53 AM85 °FSunny.6 mph55%30.01 "Hg10 mi
10:53 AM84 °FPassing clouds.6 mph59%30.02 "Hg10 mi
9:53 AM82 °FSunny.3 mph65%30.01 "Hg10 mi
8:53 AM81 °FSunny.5 mph69%30.01 "Hg10 mi
7:53 AM78 °FSunny.6 mph82%30.01 "Hg10 mi
Weather by CustomWeather, © 2014

See weather overviewHow to use our weather pages